Change the Weather History Date:

Friday, March 15, 2013

  Actual Average Record
Temperature  
Mean Temperature 52 °F -  
Max Temperature 66 °F 52 °F 66 °F (1999)
Min Temperature 39 °F 31 °F 27 °F (1997)
Degree Days  
Heating Degree Days 12    
Growing Degree Days 2 (Base 50)    
Moisture  
Dew Point 39 °F    
Average Humidity 73    
Maximum Humidity 93    
Minimum Humidity 32    
Precipitation  
Precipitation 0.00 in - - ()
Sea Level Pressure  
Sea Level Pressure 30.15 in    
Wind  
Wind Speed 1 mph (NW)    
Max Wind Speed 6 mph    
Max Gust Speed -    
Averages and records for this station are not official NWS values.
T = Trace of Precipitation, MM = Missing Value Source: NWS Daily Summary

Daily Weather History Graph

Daily Weather History Graph

Search for Another Location

Airport or City:

Trip Planner

Search our weather history database for the weather conditions in past years. The results will help you decide how hot, cold, wet, or windy it might be!

Date:

Astronomy

Mar. 15, 2013 Rise Set
Actual Time 7:54 AM MDT 7:48 PM MDT
Civil Twilight 7:24 AM MDT 8:18 PM MDT
Nautical Twilight 6:49 AM MDT 8:53 PM MDT
Astronomical Twilight 6:14 AM MDT 9:29 PM MDT
Moon 9:32 AM MDT (3/15) No Moon Set
Length of Visible Light 12h 53m
Length of Day
11h 54m
Waxing Crescent, 16% of the Moon is Illuminated
Mar 15
Waxing Crescent
Mar 19
First Quarter
Mar 27
Full
Apr 2
Last Quarter
Apr 10
New

Hourly Weather History & Observations

Time (MDT) Temp. Windchill Dew Point Humidity Pressure Visibility Wind Dir Wind Speed Gust Speed Precip Events Conditions
12:52 AM 42.1 °F 40.2 °F 39.0 °F 89% 30.14 in - NW 3.5 mph - N/A   Unknown
1:52 AM 42.1 °F - 39.0 °F 89% 30.14 in - Calm Calm - N/A   Unknown
2:52 AM 41.0 °F - 39.0 °F 93% 30.17 in - Calm Calm - N/A   Unknown
3:52 AM 41.0 °F - 39.0 °F 93% 30.18 in - Calm Calm - N/A   Unknown
4:52 AM 41.0 °F - 39.0 °F 93% 30.18 in - Calm Calm - N/A   Unknown
5:52 AM 41.0 °F - 39.0 °F 93% 30.19 in - Calm Calm - N/A   Unknown
6:52 AM 39.9 °F - 37.9 °F 93% 30.21 in - Calm Calm - N/A   Unknown
7:52 AM 41.0 °F - 39.0 °F 93% 30.23 in - Calm Calm - N/A   Unknown
8:52 AM 42.1 °F - 39.0 °F 89% 30.23 in - Calm Calm - N/A   Unknown
9:52 AM 44.1 °F - 39.9 °F 85% 30.23 in - Calm Calm - N/A   Unknown
10:52 AM 46.9 °F - 39.9 °F 77% 30.21 in - Calm Calm - N/A   Unknown
11:52 AM 52.0 °F - 39.9 °F 63% 30.19 in - Calm Calm - N/A   Unknown
12:52 PM 55.9 °F - 41.0 °F 57% 30.16 in - South 3.5 mph - N/A   Unknown
1:52 PM 62.1 °F - 37.0 °F 39% 30.12 in - Variable 4.6 mph - N/A   Unknown
2:52 PM 63.0 °F - 36.0 °F 37% 30.10 in - SE 5.8 mph - N/A   Unknown
3:52 PM 66.9 °F - 36.0 °F 32% 30.08 in - Calm Calm - N/A   Unknown
4:52 PM 66.0 °F - 37.9 °F 36% 30.06 in - Variable 3.5 mph - N/A   Unknown
5:52 PM 57.9 °F - 42.1 °F 56% 30.07 in - Calm Calm - N/A   Unknown
6:52 PM 54.0 °F - 42.1 °F 64% 30.09 in - North 3.5 mph - N/A   Unknown
7:52 PM 50.0 °F - 39.9 °F 68% 30.11 in - Calm Calm - N/A   Unknown
8:52 PM 48.0 °F - 39.9 °F 74% 30.13 in - Calm Calm - N/A   Unknown
9:52 PM 48.0 °F - 39.9 °F 74% 30.13 in - Calm Calm - N/A   Unknown
10:52 PM 46.0 °F - 39.0 °F 76% 30.13 in - Calm Calm - N/A   Unknown
11:52 PM 46.0 °F 44.8 °F 39.9 °F 79% 30.13 in - NW 3.5 mph - N/A   Unknown